Regional Weather Roundup
Issued by NWS Albany, NY

Home | Current Version | Previous Version | Text Only | Print | Product List | Glossary On
Versions: 1 2 3 4 5 6 7 8 9 10 11 12 13 14 15 16 17 18 19 20 21 22 23 24 25 26 27 28
000
ASUS41 KALY 211010
RWRALY

NEW YORK STATE HOURLY WEATHER ROUNDUP
NATIONAL WEATHER SERVICE ALBANY NY
500 AM EST SAT JAN 21 2017

NOTE: "FAIR" INDICATES FEW OR NO CLOUDS BELOW 12,000 FEET WITH NO
SIGNIFICANT WEATHER AND/OR NO OBSTRUCTIONS TO VISIBILITY.

NYZ032-033-038>043-046>054-057>066-NYZ062>081-082-084-211100-
EAST


CITY           SKY/WX    TMP DP  RH WIND       PRES   REMARKS
ALBANY         CLOUDY    39  35  86 S7        29.84F WCI  34
GLENS FALLS    FOG       35  32  88 CALM      29.84S VSB 1
POUGHKEEPSIE   CLOUDY    39  38  96 VRB5      29.86F
MONTGOMERY     CLOUDY    39  37  92 SW8       29.86S FOG     WCI  33
WHITE PLAINS   CLOUDY    41  39  93 W5        29.86S FOG
ISLIP          CLOUDY    42  42 100 W7        29.88R
NEW YORK CITY  CLOUDY    46  41  82 W8        29.89F
CENTRAL PARK   CLOUDY    41  41 100 SW8       29.91F FOG
$$

NYZ005>009-017-018-044>046-055-056-211100-
CENTRAL


CITY           SKY/WX    TMP DP  RH WIND       PRES   REMARKS
FULTON         CLOUDY    38  37  97 CALM      29.80F FOG
SYRACUSE       CLOUDY    38  37  97 CALM      29.81S
ROME           CLOUDY    37  37 100 CALM      29.83F
ELMIRA         CLOUDY    38  36  92 CALM      29.83S FOG
BINGHAMTON     CLOUDY    37  37 100 SW8       29.81F FOG     WCI  31
MONTICELLO     CLOUDY    34  34 100 CALM      29.85F VSB 1/4
$$

NYZ026>034-041>043-087-211100-
NORTH


CITY           SKY/WX    TMP DP  RH WIND       PRES   REMARKS
WATERTOWN      CLOUDY    44  44 100 SW9       29.77F FOG
FORT DRUM      NOT AVBL
OGDENSBURG     CLOUDY    35  34  95 CALM      29.77F FOG
MASSENA        CLOUDY    33  33 100 NE3       29.80S FOG
SARANAC LAKE   CLOUDY    33  32  96 SW3       29.75S FOG
PLATTSBURGH    CLOUDY    34  31  88 CALM      29.81F
$$

NYZ001>004-010>016-019>021-085-211100-
WEST


CITY           SKY/WX    TMP DP  RH WIND       PRES   REMARKS
NIAGARA FALLS  CLOUDY    42  38  85 S6        29.79S FOG
BUFFALO        FOG       42  41  96 S6        29.79F VSB 1/2
DUNKIRK        FOG       44  43  96 N3        29.80F VSB 1/4
JAMESTOWN      CLOUDY    46  45  93 S5        29.79F VSB 1/4
WELLSVILLE     CLOUDY    47  45  93 SW5       29.81F
ROCHESTER      DRIZZLE   45  43  93 W10       29.81S
PENN YAN       CLOUDY    44  39  82 SW9       29.81S
$$

             KEY
       WCI = WIND CHILL INDEX
       VSB = VISIBILITY
       HX  = HEAT INDEX
$$




USA.gov is the U.S. government's official web portal to all federal, state and local government web resources and services.